Weather in Mekhelta

Russia / Republic of Dagestan     42°47′39″N   46°30′06″E
temp.,
°C
wind,
m/s
gust,
m/s
humid.,
%
clouds,
%
prec.,
mm/h
press.,
hPa
HPBL,
m
13 april, tue
tue1300:00+4ene229213 0.0 102188
03:00+4ene229212 0.0 102131
06:00+4e239485 0.0 1021217
09:00+7e337739 0.0 1019517
12:00+12ene44530 0.0 1016999
15:00+12ne445453 0.3 10151061
18:00+8ne336629 1.3 1017711
21:00+5ene228246 1.4 1018180
14 april, wed
wed1400:00+4e22855 0.1 101753
03:00+4nw018576 0.1 101612
06:00+4ene118310 0.1 101530
09:00+8ne2266100 0.2 1013756
12:00+7n3378100 0.6 1013791
15:00+2nnw2396100 15.2 1017275
18:00+3w2393100 2.9 1018270
21:00+2w2389100 2.9 101979
15 april, thu
thu1500:00+1wnw228651 0.0 101819
03:00+1w22825 0.0 101820
06:00+1wsw22792 0.0 101923
09:00+6w12690 0.0 1016308
12:00+10ne22455 0.0 10141144
15:00+11ene224685 0.1 10141593
18:00+8ne23715 0.6 1016320
21:00
16 april, fri
fri1600:00+5w018287 0.0 101710
03:00+5s118069 0.0 101710
06:00+4se017740 0.0 101811
09:00+9ese225583 0.0 1016712
12:00+12e3246100 0.0 10141639
15:00+12ne325732 0.3 1014944
18:00+9ene227255 0.4 1015369
21:00+8wnw017988 0.4 101511
17 april, sat
sat1700:00+6wsw22788 0.1 101729
03:00+5sw227639 0.2 101817
06:00+5wsw1173100 0.0 101817
09:00+10ne215597 0.0 1016734
12:00+11ne4362100 0.1 10151112
15:00+7n3383100 0.2 1017511
18:00+5n2289100 0.2 1020346
21:00+5ene2290100 0.3 1019356